[Date Prev][Date Next][Thread Prev][Thread Next] - [Date Index][Thread Index][Author Index]
2 Line ISS Keps 8-29
- Subject: [sarex] 2 Line ISS Keps 8-29
- From: "Dave Larsen PhD" <doc@xxxxxxxxxxx>
- Date: Wed, 29 Aug 2001 02:02:19 -0700
ISS
1 25544U 98067A 01241.06603696 .00028303 00000-0 38332-3 0 3952
2 25544 51.6408 81.6797 0008466 47.0269 95.4924 15.57425412158458
----
Via the sarex mailing list at AMSAT.ORG courtesy of AMSAT-NA.
To unsubscribe, send "unsubscribe sarex" to Majordomo@amsat.org
AMSAT Home